Powrót do katalogu

CZ-6A DEB

AktywnyPO
NORAD 60712·DEBRIS·🇨🇳 China

Wystrzelony Aug 6, 2024 z Taiyuan Satellite Launch Center

Loading…

Następne Przeloty (najbliższe 24 godziny)

TLE

ŚwieżeSource: Space-Track

Epoka: Sep 14, 2026, 22:26 UTC

1 60712U 24140DR  26257.93496442  .00001353  00000-0  19398-3 0  9995
2 60712  88.8793 246.0526 0147065 251.1944 107.3272 14.68747557111936

Śledź CZ-6A DEB w czasie rzeczywistym z AllMySat

Download on the App Store